| time (UTC) | temp F | wind direction | speed MPH | gust MPH | rain 1hr in | rain 24hr in | rain mn in | humidity % | barometer mb |
| 20260503013017 | 64 | 338 | 2.0 | 4.0 | 0.00 | 0.21 | 0.09 | 86 | 1019.2 |
| 20260503011609 | 66 | 338 | 3.0 | 5.0 | 0.00 | 0.21 | 0.09 | 86 | 1019.1 |
| 20260503010106 | 67 | 351 | 2.0 | 4.0 | 0.00 | 0.21 | 0.09 | 87 | 1019.0 |
| 20260503004528 | 68 | 360 | 3.0 | 5.0 | 0.00 | 0.26 | 0.09 | 87 | 1018.8 |
| 20260503003108 | 69 | 360 | 2.0 | 5.0 | 0.00 | 0.26 | 0.09 | 88 | 1018.8 |
| 20260503001538 | 70 | 17 | 3.0 | 8.0 | 0.00 | 0.26 | 0.09 | 89 | 1018.7 |
| 20260502234535 | 71 | 9 | 5.0 | 12.0 | 0.00 | 0.30 | 0.09 | 90 | 1018.5 |
| 20260502233037 | 71 | 20 | 5.0 | 10.0 | 0.00 | 0.30 | 0.09 | 90 | 1018.4 |
| 20260502231502 | 72 | 348 | 5.0 | 14.0 | 0.00 | 0.30 | 0.09 | 91 | 1018.3 |
| 20260502230036 | 72 | 14 | 6.0 | 15.0 | 0.00 | 0.30 | 0.09 | 91 | 1018.4 |
| 20260502224544 | 72 | 5 | 4.0 | 11.0 | 0.00 | 0.35 | 0.09 | 92 | 1018.5 |
| 20260502223012 | 72 | 27 | 4.0 | 12.0 | 0.00 | 0.35 | 0.09 | 92 | 1018.4 |
| 20260502221513 | 72 | 346 | 6.0 | 11.0 | 0.00 | 0.35 | 0.09 | 93 | 1018.6 |
| 20260502220003 | 72 | 327 | 5.0 | 10.0 | 0.00 | 0.35 | 0.09 | 93 | 1018.6 |
| 20260502214558 | 72 | 36 | 3.0 | 10.0 | 0.00 | 0.41 | 0.09 | 94 | 1018.7 |
| 20260502213037 | 72 | 294 | 5.0 | 12.0 | 0.00 | 0.41 | 0.09 | 94 | 1019.0 |
| 20260502211526 | 72 | 26 | 7.0 | 15.0 | 0.00 | 0.41 | 0.09 | 94 | 1019.1 |
| 20260502210100 | 71 | 71 | 2.0 | 9.0 | 0.00 | 0.41 | 0.09 | 94 | 1019.2 |
| 20260502204532 | 72 | 11 | 8.0 | 14.0 | 0.00 | 0.47 | 0.09 | 95 | 1019.3 |
| 20260502203058 | 71 | 43 | 4.0 | 9.0 | 0.00 | 0.47 | 0.09 | 95 | 1019.4 |
| 20260502201524 | 71 | 342 | 5.0 | 13.0 | 0.00 | 0.47 | 0.09 | 95 | 1019.5 |
| 20260502200107 | 70 | 5 | 7.0 | 15.0 | 0.00 | 0.47 | 0.09 | 96 | 1019.5 |
| 20260502194518 | 70 | 335 | 2.0 | 12.0 | 0.00 | 0.55 | 0.09 | 96 | 1019.7 |
| 20260502193058 | 69 | 22 | 3.0 | 13.0 | 0.00 | 0.55 | 0.09 | 96 | 1019.8 |
| 20260502191524 | 69 | 355 | 7.0 | 15.0 | 0.00 | 0.55 | 0.09 | 96 | 1020.0 |
| 20260502190017 | 69 | 62 | 7.0 | 14.0 | 0.00 | 0.55 | 0.09 | 96 | 1020.2 |
| 20260502184557 | 68 | 46 | 4.0 | 17.0 | 0.00 | 0.64 | 0.09 | 96 | 1020.5 |
| 20260502183013 | 68 | 36 | 3.0 | 14.0 | 0.00 | 0.64 | 0.09 | 96 | 1020.7 |
| 20260502181552 | 68 | 328 | 6.0 | 14.0 | 0.00 | 0.64 | 0.09 | 96 | 1020.9 |
| 20260502163028 | 63 | 28 | 5.0 | 12.0 | 0.00 | 0.84 | 0.09 | 97 | 1021.8 |
| 20260502161504 | 62 | 316 | 8.0 | 12.0 | 0.00 | 0.84 | 0.09 | 97 | 1021.8 |
| 20260502151506 | 60 | 348 | 5.0 | 10.0 | 0.00 | 0.96 | 0.09 | 97 | 1021.8 |
| 20260502050104 | 52 | 49 | 2.0 | 11.0 | 0.03 | 1.56 | 0.00 | 95 | 1017.2 |
| 20260502044534 | 52 | 29 | 5.0 | 9.0 | 0.02 | 1.57 | 1.55 | 95 | 1017.3 |
| 20260502043007 | 51 | 17 | 4.0 | 8.0 | 0.02 | 1.56 | 1.54 | 95 | 1017.2 |
| 20260502041603 | 51 | 360 | 4.0 | 9.0 | 0.03 | 1.56 | 1.54 | 95 | 1017.2 |
| 20260502040040 | 51 | 37 | 4.0 | 11.0 | 0.02 | 1.55 | 1.53 | 95 | 1017.3 |
| 20260502034555 | 51 | 71 | 6.0 | 12.0 | 0.03 | 1.55 | 1.53 | 95 | 1017.2 |
| 20260502033023 | 51 | 51 | 7.0 | 13.0 | 0.03 | 1.54 | 1.52 | 95 | 1017.3 |
| 20260502031518 | 51 | 11 | 6.0 | 13.0 | 0.03 | 1.53 | 1.51 | 95 | 1017.2 |
| 20260502030027 | 51 | 51 | 9.0 | 17.0 | 0.03 | 1.52 | 1.50 | 95 | 1017.0 |
| 20260502024601 | 51 | 26 | 5.0 | 13.0 | 0.03 | 1.52 | 1.50 | 95 | 1016.7 |
| 20260502023032 | 51 | 51 | 6.0 | 18.0 | 0.03 | 1.51 | 1.49 | 95 | 1016.4 |
| 20260502021554 | 51 | 43 | 9.0 | 17.0 | 0.03 | 1.50 | 1.48 | 95 | 1015.9 |
| 20260502020040 | 52 | 44 | 12.0 | 21.0 | 0.03 | 1.49 | 1.47 | 95 | 1015.6 |
| 20260502014603 | 53 | 38 | 8.0 | 16.0 | 0.04 | 1.49 | 1.47 | 95 | 1015.5 |